Location: Narrabri
(30.3170°S, 149.7830°E)
Time: 01:05:09
(UTC+11:00)

Tiangong 1 - Visible Passes

Search period start: 22 October 2017 00:00
Search period end: 01 November 2017 00:00
Orbit: 293 x 320 km, 42.8° (Epoch: 21 October)

Date Brightness Start Highest point End Pass type
(mag) Time Alt. Az. Time Alt. Az. Time Alt. Az.
22 Oct 1.4 05:23:23 10° SW 05:25:57 51° SSE 05:28:31 10° ENE visible
23 Oct 4.5 04:02:49 10° ESE 04:02:49 10° ESE 04:02:51 10° ESE visible
23 Oct 0.8 05:33:40 10° WSW 05:36:13 47° NW 05:38:45 10° NE visible
24 Oct 4.0 04:13:37 12° E 04:13:37 12° E 04:13:51 10° E visible
24 Oct 2.4 05:44:33 10° W 05:46:16 16° NW 05:48:00 10° N visible
25 Oct 2.8 20:32:00 10° NNW 20:32:48 16° NNW 20:32:48 16° NNW visible
26 Oct 0.8 20:41:36 10° WNW 20:43:57 66° WNW 20:43:57 66° WNW visible
27 Oct 2.4 20:51:45 10° W 20:54:11 31° SSW 20:54:41 28° S visible
28 Oct 3.5 21:02:22 10° WSW 21:04:09 16° SSW 21:04:59 14° S visible
30 Oct 3.2 19:46:17 10° W 19:48:29 22° SSW 19:50:39 10° SSE visible
31 Oct 3.7 19:56:57 10° SW 19:58:14 13° SSW 19:59:31 10° S visible
